Showing default

QIANFAN-133, 69079

Orbit data source: Space-Track

QIANFAN-133, 69079 is a Chinese payload satellite in LEO that was launched on Tue, 12 May 2026 UTC via a CHANG ZHENG 6A launch vehicle from the Taiyaun Space Center, China (TSC). Payload-class satellites include a variety of spacecraft equipped with specific instruments for various scientific and technological missions. These include communications satellites like Starlink; space stations such as the ISS; scientific satellites like the Hubble; Earth observation satellites from companies like Planet Labs, Umbra, and HawkEye 360; GPS; miniature CubeSats for education and research; and military/defense satellites.

Loading next visibility...
Identifier
69079, 2026-104G
Orbit
LEO
Country
Flag of CNCN / PRC
Related business
Manufacturer
SECM
Mission
Operational spacecraft
Bus & Motor
QIANFAN, Unknown motor
Mass
267 kg wet, ~267 kg dry
Launch date (UTC)
2026-05-12 (4 weeks ago)
Launch vehicle
CHANG ZHENG 6A
Launch site
Taiyaun Space Center, China (TSC)
Object type
Payload
Rocket body
Debris
Shape & HBR
Unknown
Radar Cross Section
Large (>1 m²)

Expand to show TLE details & history
Last TLE update: 2 days ago

TLE from 2 days ago
0 QIANFAN-133
1 69079U 26104G   26155.28076275  .00000121  00000-0  50956-4 0  9993
2 69079  88.9862 343.0892 0004419 146.8505 213.2962 14.19028625  3253
Epoch: 2026-06-04T06:44Z
TLE epoch observation values (Epoch: 2026-06-04T06:44:17.901Z)
Latitude
-0.00005°
Longitude
-10.71268°
Altitude
834.354 km
Speed
7.434 km/s
True Right ascension
22h 52m 21s
True Declination
0° 00' 00"
Sunlit
Object was in daylight at epoch
Visualization orbit readout
Latitude
Unknown
Longitude
Unknown
Altitude
Unknown
Speed
Unknown
Apparent Right ascension
Unknown
Apparent Declination
Unknown
Sunlit
N/A
Visualization observer readout
Local Sidereal Time
02:44:03
Azimuth
Unknown
Elevation
Unknown
Doppler factor
Unknown
Orbital elements
Apogee altitude
828.776 km
Perigee altitude
822.409 km
Semi-major axis
7,203.729 km
Eccentricity
0.00044
Inclination
88.9862°
RAAN
343.0892°
Arg. of periapsis
146.8505°
True anomaly
213.26841°
Mean anomaly
213.2962°
Eccentric anomaly
213.28231°
Mean motion
3.54983 °/min
Orbital period
101.41 mins
BSTAR
0.000050956
Loading maneuver chart data...
Computing Atmospheric mass density...
Loading historical data...
Loading historical data...
Loading historical data...
Loading historical data...
Loading historical data...
Loading historical data...
Loading historical data...

Documentation

Showing up to 5 results
|